Notices

What's New in latest Release from April 7th, 2021:

- Updated Glossary, including Speed of Maximum Gust, and Total Hourly Precipitation

- Updated national and regional climate services offices contacts and prices information

- Addition of station inventory lists for 1981-2010, 1971-2000, and 1961-1990 Normals.

If you haven't already, please take our survey and provide feedback about our website: https://eccc.sondage-survey.ca/f/LanguageSelection.aspx?s=442ca660-fcf1-47c0-95a9-59707d6fd709

Hourly Data Report for March 14, 2020

MIRAMICHI RCS
NEW BRUNSWICK
Current Station Operator: ECCC - MSC

47°00'34.000" N
65°27'54.000" W
33.00 m
8100989
71744
ACQ

Download Data

Hourly Data (March 2020)
Hourly Data Report for March 14, 2020
TIME
LST
Temp Definition
°C
Dew Point Definition
°C
Rel Hum Definition
%
Precip. Amount Definition
mm

Wind Dir Definition
10's deg

Wind Spd Definition
km/h
Visibility Definition
km
Stn Press Definition
kPa
Hmdx Definition


Wind Chill Definition


Weather Definition


00:00 0.0 -0.8 94 LegendMM 24 18   99.56   -5 LegendNANA
01:00 0.7 -0.2 94 LegendMM 24 17   99.58     LegendNANA
02:00 1.5 -0.2 89 LegendMM 23 22   99.62     LegendNANA
03:00 0.9 -0.4 91 LegendMM 23 22   99.64     LegendNANA
04:00 1.0 -0.4 90 LegendMM 23 24   99.66     LegendNANA
05:00 1.1 -0.7 88 LegendMM 23 24   99.74     LegendNANA
06:00 0.7 -1.1 88 LegendMM 24 19   99.79     LegendNANA
07:00 1.2 -1.3 83 LegendMM 24 25   99.83     LegendNANA
08:00 1.2 -1.1 85 LegendMM 22 27   99.84     LegendNANA
09:00 1.6 -1.1 82 LegendMM 23 23   99.86     LegendNANA
10:00 2.9 -2.1 69 LegendMM 25 35   99.85     LegendNANA
11:00 3.0 -2.8 66 LegendMM 26 31   99.91     LegendNANA
12:00 2.2 -3.0 68 LegendMM 26 31   100.00     LegendNANA
13:00 1.0 -6.8 56 LegendMM 29 37   100.09     LegendNANA
14:00 0.7 -7.7 54 LegendMM 27 30   100.15     LegendNANA
15:00 0.2 -7.0 58 LegendMM 28 33   100.26     LegendNANA
16:00 0.4 -8.4 52 LegendMM 28 27   100.36     LegendNANA
17:00 -0.4 -9.1 52 LegendMM 29 39   100.51   -8 LegendNANA
18:00 -1.2 -9.7 52 LegendMM 29 36   100.69   -9 LegendNANA
19:00 -1.7 -9.9 54 LegendMM 28 30   100.82   -9 LegendNANA
20:00 -2.7 -10.9 54 LegendMM 29 32   100.94   -10 LegendNANA
21:00 -3.6 -11.3 55 LegendMM 28 28   101.05   -11 LegendNANA
22:00 -4.0 -11.7 55 LegendMM 29 30   101.18   -12 LegendNANA
23:00 -4.7 -11.5 59 LegendMM 29 21   101.25   -11 LegendNANA

Notes on Data Quality.

Legend

  • E = Estimated
  • M = Missing
  • NA = Not Available*
  • [empty] = Indicates an unobserved value
Date modified: